Simultaneous Nadir Overpasses (SNOs) Predictions

Prediction of SNOs between LANDSAT-8 and NOAA-19 Satellite Orbit:

Table of predicted SNOs for the next 14.0 days since TLE Epoch: 2/26/2022
Index Date (LANDSAT-8) Time (LANDSAT-8) Lat,Lon (LANDSAT-8) SZA (LANDSAT-8 ) Date (NOAA-19) Time (NOAA-19) Lat,Lon (NOAA-19) SZA (NOAA-19 ) Distance(km) Time Diff (sec)
1 02/27/2022 10:24:45 80.72, 58.13 90.26 02/27/2022 10:24:43 80.70, 58.27 90.25 3.16 2
2 03/01/2022 15:58:29 -80.72, 154.74 90.57 03/01/2022 15:57:42 -80.72, 154.58 90.61 2.92 47
3 03/01/2022 16:47:56 80.70, -37.90 89.37 03/01/2022 16:48:45 80.71, -37.88 89.40 1.13 49
4 03/03/2022 22:21:40 -80.70, 58.70 91.47 03/03/2022 22:21:44 -80.72, 58.58 91.46 2.95 4
5 03/06/2022 03:55:22 80.73, 155.63 87.75 03/06/2022 03:54:48 80.72, 155.54 87.71 2.54 34
6 03/06/2022 04:44:50 -80.71, -37.05 92.32 03/06/2022 04:45:45 -80.71, -37.09 92.30 0.98 55
7 03/08/2022 10:18:33 80.70, 59.49 86.83 03/08/2022 10:18:49 80.71, 59.65 86.86 3.06 16
8 03/10/2022 15:52:16 -80.73, 156.38 93.99 03/10/2022 15:51:49 -80.72, 156.26 94.01 2.43 27



Historial Predications of SNOs between LANDSAT-8 and NOAA-19
